www.pogodaiklimat.ru

Погода и климат >> Архив погоды >> Эстония >> Тиирикоя


ПОГОДА в Тиирикое

  • Прогноз погоды в Тиирикое
  • Монитор погоды в Тиирикое

АРХИВ ПОГОДЫ в Тиирикое

Время (UTC), дата Ветер
(напр.,м/с)
 
Видим.   Явления Облачность Т
(С)
Тd
(С)
f
(%)
Тe
(С)
Тes
(С)
Комфортность P
(гПа)
Po
(гПа)
Тmin
(С)
Tmax
(С)
R
(мм)
R24
(мм)
S
(см)
01 14.07 9000 м н/о +8.3 +8.6 100 1010.5 1006.5
02 14.07 12 км н/о +8.9 +9.2 100 1010.4 1006.4
03 14.07 12 км {дымка} ясно +9.2 +7.8 91 1010.7 1006.7 +7.8 +16.7
04 14.07 20 км н/о +12.3 +11.1 92 1010.8 1006.8
05 14.07 20 км н/о +12.9 +11.9 94 1010.7 1006.7
06 14.07 20 км {ливн. осадки} 5/0
[Ac und Cc]
+15.4 +10.9 75 1010.9 1007.0 +7.8 +15.7
07 14.07 20 км н/о +15.7 +10.8 73 1011.3 1007.4
08 14.07 20 км н/о +15.8 +10.5 71 1011.4 1007.6
09 14.07 20 км ясно +16.1 +7.8 58 1011.2 1007.4 +7.8 +17.2
10 14.07 10 км н/о +12.8 +12.6 99 1011.9 1007.9 3
11 14.07 20 км н/о +14.9 +10.1 73 1011.2 1007.3 1
12 14.07 20 км {ливн. осадки} 6/0 2000 м
[Ac und Cs]
+15.6 +10.6 72 1011.3 1007.4 +8.1 +17.7 4
13 14.07 20 км н/о +18.0 +10.4 61 1010.9 1007.1
14 14.07 20 км н/о +17.4 +8.8 57 1010.9 1007.0
15 14.07 20 км 1/0 2000 м
[Ac und Cs]
+17.1 +9.2 60 1011.0 1007.1 +9.2 +18.1
16 14.07 20 км н/о +15.5 +12.2 81 1011.1 1007.2
17 14.07 20 км н/о +15.1 +12.5 84 1011.3 1007.4
18 14.07 20 км 9/6 1000 м
[Ac lent Ci]
+13.9 +10.4 79 1011.5 1007.6 +12.5 +18.1
19 14.07 20 км н/о +11.0 +10.6 97 1011.7 1007.7
20 14.07 20 км н/о +10.2 +9.9 98 1011.8 1007.8
21 14.07 20 км 6/6 1500 м
[Ac und Cs]
+9.8 +9.7 99 1012.1 1008.1 +9.7 +18.1
22 14.07 17 км н/о +8.8 +8.6 99 1012.1 1008.1
23 14.07 20 км н/о +8.3 +8.0 98 1012.1 1008.1
00 15.07 20 км ясно +7.7 +7.4 98 1012.0 1008.0 +7.6 +18.1
01 15.07 19 км н/о +7.1 +6.6 97 1011.8 1007.8
02 15.07 20 км н/о +7.2 +6.8 97 1011.9 1007.9
03 15.07 20 км ясно +8.3 +6.7 90 1011.9 1007.9 +6.7 +17.5
04 15.07 20 км н/о +10.5 +8.4 87 1011.7 1007.8
05 15.07 20 км н/о +13.4 +9.0 75 1011.6 1007.7
06 15.07 20 км ясно +15.3 +8.2 63 1011.6 1007.7 +6.7 +15.5
07 15.07 20 км н/о +15.8 +8.2 61 1011.6 1007.7
08 15.07 20 км н/о +16.6 +9.0 61 1011.5 1007.6
09 15.07 20 км ясно +17.6 +6.7 49 1011.4 1007.6 +6.7 +17.7
10 15.07 20 км н/о +18.8 +10.0 57 1011.2 1007.3
11 15.07 20 км н/о +19.4 +8.1 48 1010.8 1007.0
12 15.07 20 км 6/0 2000 м
[Ac und Cs]
+19.6 +8.0 47 1010.6 1006.7 +6.7 +20.1
13 15.07 20 км н/о +19.9 +9.7 52 1010.4 1006.6
14 15.07 20 км н/о +19.6 +10.0 54 1010.2 1006.3
15 15.07 20 км 9/9 2000 м
[Ac und Cs]
+18.3 +7.9 51 1009.9 1006.1 +7.9 +20.1
16 15.07 20 км н/о +18.2 +10.6 61 1010.0 1006.1
17 15.07 20 км н/о +17.7 +10.3 62 1009.8 1006.0
18 15.07 20 км 9/9 2000 м
[Ac und Cs]
+17.3 +10.3 63 1009.5 1005.7 +15.2 +20.1
19 15.07 20 км н/о +16.2 +11.0 71 1009.6 1005.7
20 15.07 20 км н/о +12.7 +11.9 95 1009.6 1005.7
21 15.07 20 км {ливн. осадки} 9/9 2000 м
[Ac und Cs]
+13.9 +12.5 91 1009.5 1005.6 +12.5 +20.1
22 15.07 20 км н/о +13.0 +11.0 88 1009.3 1005.3
23 15.07 20 км н/о +12.3 +11.6 95 1009.1 1005.2
00 16.07 20 км {ливн. осадки} 9/0
[Ac cuf]
+12.4 +10.5 88 1008.9 1005.0 +11.9 +20.0
01 16.07 20 км н/о +11.7 +9.7 88 1008.7 1004.8
02 16.07 20 км н/о +10.6 +9.2 91 1008.4 1004.4
03 16.07 20 км 3/3
[Ac cuf Cc]
+12.0 +10.1 88 1008.2 1004.2 +10.1 +18.4
04 16.07 20 км н/о +14.2 +10.4 78 1007.9 1004.0
05 16.07 20 км н/о +15.9 +11.7 76 1007.8 1003.9
06 16.07 20 км 8/0
[Ac cuf Ci fib]
+16.8 +12.5 76 1007.7 1003.8 +10.1 +17.3
07 16.07 20 км н/о +18.9 +14.2 74 1007.6 1003.8
08 16.07 20 км н/о +19.1 +15.6 80 1007.5 1003.7
09 16.07 20 км 1/1 1500 м
[Ac und Cs]
+20.1 +10.1 53 1007.4 1003.5 +10.1 +20.4
10 16.07 20 км н/о +18.6 +14.7 78 1007.2 1003.4
11 16.07 20 км н/о +19.4 +14.6 74 1007.0 1003.2 0.4
12 16.07 20 км 5/5
[Ac As Ci sp]
+21.3 +14.8 66 1006.8 1003.0 +10.1 +21.3 0.4
13 16.07 20 км н/о +19.2 +14.6 75 1006.9 1003.0
14 16.07 20 км н/о +20.7 +14.3 67 1006.9 1003.1
15 16.07 20 км 9/8 1500 м
[Ac und Cs]
+18.7 +12.0 65 1007.1 1003.3 +12.0 +21.4
16 16.07 5000 м н/о +15.8 +15.0 95 1007.7 1003.8 0.9
17 16.07 20 км н/о +14.8 +14.1 96 1007.2 1003.3 0.9
18 16.07 19 км {ливн. осадки, дождь} ясно +14.3 +13.7 96 1007.3 1003.4 +14.2 +21.4 2
19 16.07 13 км н/о +13.8 +13.1 96 1007.7 1003.8
20 16.07 7000 м н/о +13.6 +13.5 99 1007.4 1003.5
21 16.07 2700 м дымка 4/4 1500 м
[Ac und Cs]
+12.8 +12.8 100 1007.5 1003.6 +12.8 +21.4
22 16.07 2300 м н/о +12.1 +12.1 100 1007.3 1003.4
23 16.07 1300 м н/о +11.6 +11.6 100 1007.4 1003.5
00 17.07 3000 м в посл. час туман {дымка} ясно +12.1 +11.8 98 1007.3 1003.4 +11.4 +21.4
01 17.07 1200 м н/о +10.9 +10.9 100 1007.4 1003.4
02 17.07 20 км н/о +13.5 +12.5 94 1007.5 1003.6
03 17.07 20 км {дымка} 9/1 300 м
[As trans Ci sp]
+14.9 +10.4 74 1007.7 1003.8 +10.4 +19.2
04 17.07 20 км н/о +15.5 +14.1 91 1007.7 1003.8
05 17.07 20 км н/о +16.2 +13.9 86 1007.7 1003.9
06 17.07 20 км ясно +16.5 +14.4 87 1007.7 1003.9 +10.4 +17.1
07 17.07 20 км н/о +16.4 +13.4 82 1007.9 1004.1
08 17.07 20 км н/о +18.3 +11.7 65 1007.9 1004.1
09 17.07 20 км 9/0 2000 м
[Ac und Cs]
+18.1 +10.4 61 1008.1 1004.2 +10.4 +18.9
10 17.07 20 км н/о +18.7 +12.3 66 1007.7 1003.9
11 17.07 20 км н/о +17.2 +14.6 85 1007.6 1003.8 0.1
12 17.07 20 км {ливн. осадки} 9/9 1000 м
[Ac lent]
+19.3 +13.4 69 1007.7 1003.9 +10.4 +20.1 0.1
13 17.07 20 км н/о +17.7 +13.8 78 1007.9 1004.0
14 17.07 20 км н/о +19.3 +14.2 72 1007.7 1003.9
15 17.07 20 км 9/8 1500 м
[Ac und Cs]
+19.4 +14.2 72 1007.6 1003.8 +14.2 +20.4
16 17.07 20 км {дождь} н/о +16.5 +14.4 87 1008.0 1004.1 +15.4 +20.4
17 17.07 20 км {дождь} н/о +16.9 +14.8 87 1008.2 1004.3 +15.7 +20.4 0.2
18 17.07 20 км {дождь} 8/5 600 м
[As op Cs]
+16.0 +14.7 92 1008.2 1004.3 +15.7 +20.4 0.2
19 17.07 18 км н/о +14.8 +13.8 94 1008.2 1004.3 +14.5 +20.4 0.2
20 17.07 20 км 8/8 900 м
[]
+14.3 +13.1 92 1008.5 1004.6 +14.3 +20.4
21 17.07 20 км 9/9 600 м
[As op Ci]
+14.5 +14.1 97 1008.6 1004.7 +14.1 +20.4
22 17.07 20 км н/о +14.0 +12.6 91 1008.6 1004.7
23 17.07 18 км н/о +13.4 +12.8 96 1008.7 1004.8 +13.3 +20.4
00 18.07 20 км 9/4 1500 м
[Ac und Cs]
+13.2 +12.5 96 1008.4 1004.5 +13.2 +20.4
01 18.07 15 км н/о +12.8 +12.4 97 1008.2 1004.3
02 18.07 20 км н/о +13.1 +12.4 96 1008.2 1004.3
03 18.07 20 км 9/1 1000 м
[Ac trans Cc]
+14.0 +12.7 92 1008.2 1004.3 +12.7 +19.4
04 18.07 20 км н/о +15.6 +13.7 88 1008.1 1004.3 +12.7 +17.1
05 18.07 20 км н/о +16.1 +14.0 87 1008.1 1004.2
06 18.07 20 км 6/6 300 м
[As trans Cs]
+18.1 +14.9 82 1007.9 1004.0 +12.7 +18.1
07 18.07 20 км н/о +18.3 +14.5 79 1007.7 1003.9
08 18.07 20 км н/о +18.6 +14.1 75 1007.7 1003.9 +12.7 +20.4
09 18.07 20 км 9/6 600 м
[As op Cs]
+19.1 +12.7 66 1007.6 1003.8 +12.7 +20.4
10 18.07 20 км н/о +20.9 +13.4 62 1007.5 1003.7
11 18.07 20 км н/о +21.0 +12.9 60 1007.4 1003.6 +12.7 +21.5
12 18.07 20 км 5/5 1000 м
[Ac trans Cs]
+20.2 +13.2 64 1007.4 1003.6 +12.7 +21.9
13 18.07 20 км н/о +21.6 +12.2 55 1007.4 1003.6
14 18.07 20 км н/о +22.0 +10.9 49 1007.2 1003.4
15 18.07 20 км 6/6 1500 м
[Ac und Cs]
+21.1 +14.0 64 1007.1 1003.3 +14.0 +22.4
16 18.07 20 км н/о +21.5 +10.3 49 1006.9 1003.1
17 18.07 20 км н/о +19.8 +12.7 64 1007.3 1003.5
18 18.07 20 км 9/3 1500 м
[Ac und Cs]
+18.9 +13.5 71 1007.3 1003.5 +17.4 +22.4
19 18.07 20 км н/о +18.1 +13.6 75 1007.4 1003.6
20 18.07 20 км н/о +16.6 +13.5 82 1007.7 1003.9
21 18.07 20 км 9/0
[Ac cuf Ci fib]
+16.1 +15.9 99 1007.6 1003.8 +15.9 +22.4
22 18.07 20 км н/о +15.5 +13.8 90 1007.6 1003.7
23 18.07 20 км н/о +15.2 +13.7 91 1007.5 1003.7
00 19.07 20 км 9/6
[Ac und Cc]
+15.3 +13.5 89 1007.5 1003.6 +15.0 +22.4
01 19.07 20 км н/о +15.2 +13.4 89 1007.5 1003.6
02 19.07 12 км н/о +14.7 +14.1 96 1007.5 1003.6 0.2
03 19.07 17 км слаб. дождь 10/0
[Ac und Cc]
+14.9 +14.5 97 1007.5 1003.6 +14.5 +21.6 1
04 19.07 20 км н/о +15.4 +14.8 96 1007.4 1003.5 0.1
05 19.07 20 км н/о +15.9 +15.0 94 1007.3 1003.4
06 19.07 20 км {ливн. осадки, дождь} 9/8 300 м
[As trans Cs]
+17.3 +14.9 86 1007.3 1003.4 +14.5 +18.9 0.1
07 19.07 20 км н/о +17.8 +14.5 81 1007.5 1003.6
08 19.07 20 км н/о +18.3 +14.7 80 1007.5 1003.6 +14.5 +18.5
09 19.07 20 км в посл. час дождь 9/9 600 м
[As op Cs]
+18.5 +14.5 78 1007.8 1003.9 +14.5 +18.5
10 19.07 20 км н/о +19.2 +14.6 75 1008.1 1004.3
11 19.07 20 км н/о +20.2 +14.0 68 1008.1 1004.3
12 19.07 9000 м слаб. морось 9/9 600 м
[Ac trans]
+17.3 +14.4 83 1008.9 1005.1 +14.5 +20.4
13 19.07 20 км н/о +18.5 +14.3 77 1008.9 1005.0
14 19.07 20 км н/о +18.7 +13.9 74 1009.1 1005.3
15 19.07 20 км 9/9 1000 м
[Ac trans Ci]
+18.1 +14.8 81 1009.5 1005.6 +14.8 +20.4
16 19.07 20 км н/о +17.9 +13.9 77 1009.7 1005.8
17 19.07 20 км н/о +17.5 +14.1 80 1009.9 1006.0
18 19.07 20 км 10/10 1000 м
[Ac und]
+17.3 +14.3 83 1009.9 1006.0 +17.1 +20.4
19 19.07 20 км н/о +16.7 +14.0 84 1010.0 1006.1
20 19.07 20 км н/о +15.9 +14.0 88 1010.3 1006.4
21 19.07 20 км 9/8 1500 м
[Ac und Cs]
+15.6 +15.6 100 1010.4 1006.5 +15.6 +20.4
22 19.07 20 км н/о +15.9 +13.7 87 1010.6 1006.7
23 19.07 20 км н/о +15.9 +13.4 85 1010.7 1006.8
00 20.07 20 км 1/0
[Ac und Cc]
+15.2 +13.1 87 1010.8 1006.9 +14.8 +18.9
01 20.07 20 км н/о +14.1 +12.8 92 1011.0 1007.1
02 20.07 20 км н/о +14.2 +12.6 90 1011.5 1007.5
03 20.07 20 км 1/0
[Ac cuf Ci fib]
+13.5 +13.4 99 1011.7 1007.8 +13.4 +18.3
05 20.07 20 км н/о +16.1 +13.4 84 1011.8 1007.9
06 20.07 20 км ясно +19.0 +14.0 73 1012.1 1008.3 +13.4 +19.0
07 20.07 20 км н/о +20.0 +13.2 65 1012.5 1008.6
08 20.07 20 км н/о +19.4 +13.5 69 1013.1 1009.2
09 20.07 20 км 9/9 1000 м
[Ac trans Ci]
+20.3 +13.4 65 1013.6 1009.7 +13.4 +21.0
10 20.07 20 км н/о +21.5 +13.2 59 1013.8 1010.0
11 20.07 20 км н/о +22.6 +14.3 59 1014.2 1010.4
12 20.07 20 км 6/6 1000 м
[Ac lent Cs]
+21.8 +13.1 58 1014.7 1010.9 +13.4 +22.9
13 20.07 20 км н/о +21.9 +12.6 56 1014.9 1011.1
14 20.07 20 км н/о +22.8 +12.1 51 1015.0 1011.2
15 20.07 20 км ясно +23.2 +13.4 54 1015.2 1011.4 +13.4 +24.1
16 20.07 20 км н/о +22.4 +13.0 55 1015.4 1011.6
17 20.07 20 км н/о +21.2 +13.0 59 1015.6 1011.8
18 20.07 20 км ясно +16.7 +13.8 83 1016.0 1012.1 +16.7 +24.1
19 20.07 20 км н/о +15.1 +13.7 91 1016.5 1012.5
20 20.07 20 км н/о +13.9 +13.5 97 1016.7 1012.8
21 20.07 20 км ясно +12.9 +12.9 100 1017.2 1013.3 +12.9 +24.1
22 20.07 20 км н/о +12.0 +11.8 99 1017.6 1013.6
23 20.07 20 км н/о +11.4 +11.2 99 1017.8 1013.8

 

Местоположение метеостанции Тиирикоя (Эстония): широта 58.87 долгота 26.95 высота над уровнем моря 34 м.

В архиве по умолчанию представлена погода в Тиирикое за последнюю неделю. Архивные данные за месяц целиком и за предыдущие месяцы, начиная с января 2011 года, Вы можете получить, выбрав интересующий диапазон дат из раскрывающегося списка и нажав кнопку "Ввод!".


*Определитесь, кто Вы:
робот инопланетянин человек

Внимание! Время в таблицах - всемирное. Для получения местного времени необходимо прибавить поправку, которая равна 2 ч.

Смотрите также архив погоды в соседних городах и на ближайших метеорологических станциях:

Погода в Йыгеве (Эстония) (33 км)
Погода в Вяйке-Маарье (Эстония) (50 км)
Погода в Гдове (Псковская область, Россия) (53 км)
Погода в Йохви (Эстония) (57 км)
Погода в Тарту (Эстония) (65 км)
Погода в Сланцах (Ленинградская область, Россия) (70 км)
Погода в Кунде (Эстония) (76 км)
Погода в Нарве (Эстония) (87 км)
Погода в Тюри (Эстония) (88 км)
Погода в Вильянди (Эстония) (96 км)

Пояснения к столбцам:

Ветер - указаны скорость ветра в м/с - средняя за 10 мин, порывы в срок и между сроками (в фигурных скобках) и направление, откуда дует ветер: С - северный, СВ - северо-восточный, В - восточный, ЮВ - юго-восточный, Ю - южный, ЮЗ - юго-западный, З - западный, СЗ - северо-западный.
Видимость - горизонтальная дальность видимости в метрах или километрах. При видимости от 1 до 10 км при отсутствии осадков обычно наблюдается дымка, при ухудшении видимости до 1 км и менее - туман. В сухую погоду видимость может ухудшаться дымом, пылью или мглою.
Явления - указаны атмосферные явления, наблюдавшиеся в срок или в последний час перед сроком; фигурными скобками обозначены явления, наблюдавшиеся между сроками (за 1-3 часа до срока); квадратными скобками обозначены град или гололедные отложения с указанием их диаметра в мм.
Облачность - указаны через наклонную черту общая и нижняя облачность в баллах и высота нижней границы облаков в метрах; квадратными скобками обозначены формы облаков: Ci - перистые, Cs - перисто-слоистые, Cc - перисто-кучевые, Ac - высококучевые, As - высокослоистые, Sc - слоисто-кучевые, Ns - слоисто-дождевые, Cu - кучевые, Cb - кучево-дождевые. Подробнее классификацию облаков см. в Атласе облаков (PDF).
T - Температура воздуха - температура, измеренная на высоте 2 м над землей.
Td - Температура точки росы - температура, при понижении до которой содержащийся в воздухе водяной пар достигнет насыщения.
f - Относительная влажность воздуха - влажноcть воздуха, измеренная на высоте 2 м над землей.
Te - Эффективная температура - температура, которую ощущает одетый по сезону человек в тени. Характеристика душности погоды. При расчете учитывается влияние влажности воздуха и скорости ветра на теплоощущения человека.
Tes - Эффективная температура на солнце - температура, которую ощущает человек, с поправкой на солнечный нагрев. Характеристика знойности погоды. Зависит от высоты солнца над горизонтом, облачности и скорости ветра. Ночью, в пасмурную погоду, а также при ветре 12 м/с и более поправка равна нулю.
P - Атмосферное давление - приведенное к уровню моря атмосферное давление.
Po - Атмосферное давление - измеренное на уровне метеостанции атмосферное давление.
Tmin - Минимальная температура - минимум температуры воздуха на высоте 2 м над землей.
Tmax - Максимальная температура - максимум температуры воздуха на высоте 2 м над землей.
R - Количество осадков - Количество выпавших осадков за период времени, мм. При наведении курсора мыши на число - период времени, за который выпало указанное количество осадков.
R24 - Количество осадков - Количество выпавших осадков за 24 часа, мм.
S - Снежный покров - Высота снежного покрова, см. При наведении курсора мыши на число - состояние снежного покрова и степень покрытия местности в баллах.